User: anonymous   Login
Location: Unspecified
(0.0000°N, 0.0000°E)
Time: 16:32:50
(UTC+02:00)
Language:

ARIANE 5 R/B - Orbit

View from above orbital plane
View from above orbital plane
View from above satellite
View from above satellite

Ground track
Ground track

The orbit data is extracted from the following two-line orbital elements,

1 29646U 06054D   14297.71959321  .00011857  00000-0  28990-2 0  7655
2 29646 002.8472 046.7143 7148862 153.5178 255.4701 02.45053518 67676
Epoch (UTC): 24 October 2014 17:16:12
Eccentricity: 0.7148862
inclination: 2.8472°
perigee height: 248 km
apogee height: 33475 km
right ascension of ascending node: 46.7143°
argument of perigee: 153.5178°
revolutions per day: 2.45053518
mean anomaly at epoch: 255.4701°
orbit number at epoch: 6767

The dashed part of the orbit path shows where the satellite is in the earth's shadow,  

DLR